Time,TemperatureF,DewpointF,PressureIn,WindDirection,WindDirectionDegrees,WindSpeedMPH,WindSpeedGustMPH,Humidity,HourlyPrecipIn,Conditions,Clouds,dailyrainin,SoftwareType,DateUTC
2013-02-14 00:00:00,31.7,30.4,27.94,NNE,22,1.0,6.0,95,0.00,,,0.00,Weather View 32 v70,2013-02-14 05:00:00,
2013-02-14 00:06:00,31.6,30.3,27.94,East,90,2.0,6.0,95,0.00,,,0.00,Weather View 32 v70,2013-02-14 05:06:00,
2013-02-14 00:11:00,31.7,30.4,27.94,ENE,67,1.0,6.0,95,0.00,,,0.00,Weather View 32 v70,2013-02-14 05:11:00,
2013-02-14 00:16:00,31.8,30.5,27.94,NE,45,1.0,6.0,95,0.00,,,0.00,Weather View 32 v70,2013-02-14 05:16:00,
2013-02-14 00:21:00,31.6,30.3,27.94,East,90,0.0,6.0,95,0.00,,,0.00,Weather View 32 v70,2013-02-14 05:21:00,
2013-02-14 00:26:00,31.5,30.2,27.95,NNW,337,2.0,6.0,95,0.00,,,0.00,Weather View 32 v70,2013-02-14 05:26:00,
2013-02-14 00:31:00,31.5,30.2,27.95,East,90,0.0,6.0,95,0.00,,,0.00,Weather View 32 v70,2013-02-14 05:31:00,
2013-02-14 00:36:00,31.4,30.1,27.95,East,90,2.0,6.0,95,0.00,,,0.00,Weather View 32 v70,2013-02-14 05:36:00,
2013-02-14 00:41:00,31.4,30.1,27.96,ESE,112,0.0,6.0,95,0.00,,,0.00,Weather View 32 v70,2013-02-14 05:41:00,
2013-02-14 00:46:00,31.4,30.1,27.96,ESE,112,1.0,6.0,95,0.00,,,0.00,Weather View 32 v70,2013-02-14 05:46:00,
2013-02-14 00:51:00,31.4,30.1,27.96,SE,135,2.0,6.0,95,0.00,,,0.00,Weather View 32 v70,2013-02-14 05:51:00,
2013-02-14 00:56:00,31.3,30.0,27.96,East,90,2.0,6.0,95,0.00,,,0.00,Weather View 32 v70,2013-02-14 05:56:00,
2013-02-14 01:01:00,31.2,29.9,27.96,East,90,1.0,6.0,95,0.00,,,0.00,Weather View 32 v70,2013-02-14 06:01:00,
2013-02-14 01:06:00,31.1,29.8,27.96,East,90,0.0,6.0,95,0.00,,,0.00,Weather View 32 v70,2013-02-14 06:06:00,
2013-02-14 01:11:00,30.9,29.4,27.96,East,90,0.0,4.0,94,0.00,,,0.00,Weather View 32 v70,2013-02-14 06:11:00,
2013-02-14 01:16:00,30.9,29.4,27.96,NE,45,1.0,4.0,94,0.00,,,0.00,Weather View 32 v70,2013-02-14 06:16:00,
2013-02-14 01:21:00,30.9,29.4,27.96,West,270,0.0,4.0,94,0.00,,,0.00,Weather View 32 v70,2013-02-14 06:21:00,
2013-02-14 01:26:00,30.9,29.4,27.96,SE,135,1.0,4.0,94,0.00,,,0.00,Weather View 32 v70,2013-02-14 06:26:00,
2013-02-14 01:31:00,30.9,29.4,27.96,SE,135,4.0,4.0,94,0.00,,,0.00,Weather View 32 v70,2013-02-14 06:31:00,
2013-02-14 01:36:00,30.6,29.1,27.96,SE,135,0.0,4.0,94,0.00,,,0.00,Weather View 32 v70,2013-02-14 06:36:00,
2013-02-14 01:41:00,30.4,28.9,27.96,ESE,112,2.0,4.0,94,0.00,,,0.00,Weather View 32 v70,2013-02-14 06:41:00,
2013-02-14 01:46:00,30.1,28.6,27.96,ESE,112,2.0,4.0,94,0.00,,,0.00,Weather View 32 v70,2013-02-14 06:46:00,
2013-02-14 01:51:00,29.9,28.4,27.96,ESE,112,1.0,4.0,94,0.00,,,0.00,Weather View 32 v70,2013-02-14 06:51:00,
2013-02-14 01:56:00,29.7,28.2,27.97,NE,45,0.0,4.0,94,0.00,,,0.00,Weather View 32 v70,2013-02-14 06:56:00,
2013-02-14 02:01:00,29.5,28.0,27.96,SE,135,1.0,5.0,94,0.00,,,0.00,Weather View 32 v70,2013-02-14 07:01:00,
2013-02-14 02:06:00,29.4,27.9,27.97,SE,135,0.0,5.0,94,0.00,,,0.00,Weather View 32 v70,2013-02-14 07:06:00,
2013-02-14 02:11:00,30.0,28.5,27.97,West,270,4.0,6.0,94,0.00,,,0.00,Weather View 32 v70,2013-02-14 07:11:00,
2013-02-14 02:16:00,29.9,28.4,27.97,SSE,157,3.0,6.0,94,0.00,,,0.00,Weather View 32 v70,2013-02-14 07:16:00,
2013-02-14 02:21:00,30.0,28.5,27.98,North,360,0.0,6.0,94,0.00,,,0.00,Weather View 32 v70,2013-02-14 07:21:00,
2013-02-14 02:26:00,30.3,28.8,27.98,East,90,2.0,6.0,94,0.00,,,0.00,Weather View 32 v70,2013-02-14 07:26:00,
2013-02-14 02:31:00,30.3,28.8,27.98,East,90,0.0,6.0,94,0.00,,,0.00,Weather View 32 v70,2013-02-14 07:31:00,
2013-02-14 02:36:00,30.4,28.9,27.98,SSE,157,1.0,6.0,94,0.00,,,0.00,Weather View 32 v70,2013-02-14 07:36:00,
2013-02-14 02:41:00,30.4,28.9,27.99,SSW,202,2.0,6.0,94,0.00,,,0.00,Weather View 32 v70,2013-02-14 07:41:00,
2013-02-14 02:46:00,30.3,28.8,28.00,SE,135,0.0,6.0,94,0.00,,,0.00,Weather View 32 v70,2013-02-14 07:46:00,
2013-02-14 02:51:00,30.1,28.6,28.00,NE,45,2.0,7.0,94,0.00,,,0.00,Weather View 32 v70,2013-02-14 07:51:00,
2013-02-14 02:56:00,29.9,28.4,28.00,SSW,202,2.0,7.0,94,0.00,,,0.00,Weather View 32 v70,2013-02-14 07:56:00,
2013-02-14 03:01:00,30.2,28.7,28.00,West,270,1.0,7.0,94,0.00,,,0.00,Weather View 32 v70,2013-02-14 08:01:00,
2013-02-14 03:06:00,30.2,28.7,28.00,West,270,0.0,7.0,94,0.00,,,0.00,Weather View 32 v70,2013-02-14 08:06:00,
2013-02-14 03:11:00,29.7,28.2,28.00,NNE,22,1.0,7.0,94,0.00,,,0.00,Weather View 32 v70,2013-02-14 08:11:00,
2013-02-14 03:16:00,29.5,28.0,28.01,NNE,22,2.0,7.0,94,0.00,,,0.00,Weather View 32 v70,2013-02-14 08:16:00,
2013-02-14 03:21:00,29.6,28.1,28.01,SW,225,2.0,7.0,94,0.00,,,0.00,Weather View 32 v70,2013-02-14 08:21:00,
2013-02-14 03:26:00,29.6,28.1,28.01,North,360,6.0,7.0,94,0.00,,,0.00,Weather View 32 v70,2013-02-14 08:26:00,
2013-02-14 03:31:00,30.2,28.7,28.01,NW,315,9.0,14.0,94,0.00,,,0.00,Weather View 32 v70,2013-02-14 08:31:00,
2013-02-14 03:36:00,31.3,28.2,28.01,NNW,337,2.0,14.0,88,0.00,,,0.00,Weather View 32 v70,2013-02-14 08:36:00,
2013-02-14 03:41:00,31.2,27.8,28.02,NW,315,5.0,14.0,87,0.00,,,0.00,Weather View 32 v70,2013-02-14 08:41:00,
2013-02-14 03:46:00,31.3,27.3,28.02,NW,315,2.0,14.0,85,0.00,,,0.00,Weather View 32 v70,2013-02-14 08:46:00,
2013-02-14 03:51:00,31.5,26.9,28.02,NW,315,3.0,14.0,83,0.00,,,0.00,Weather View 32 v70,2013-02-14 08:51:00,
2013-02-14 03:56:00,31.6,27.3,28.02,North,360,1.0,14.0,84,0.00,,,0.00,Weather View 32 v70,2013-02-14 08:56:00,
2013-02-14 04:01:00,31.2,27.2,28.02,North,360,2.0,14.0,85,0.00,,,0.00,Weather View 32 v70,2013-02-14 09:01:00,
2013-02-14 04:06:00,31.2,26.3,28.02,West,270,3.0,14.0,82,0.00,,,0.00,Weather View 32 v70,2013-02-14 09:06:00,
2013-02-14 04:11:00,31.6,25.5,28.02,WNW,292,2.0,14.0,78,0.00,,,0.00,Weather View 32 v70,2013-02-14 09:11:00,
2013-02-14 04:16:00,31.5,26.3,28.03,West,270,7.0,14.0,81,0.00,,,0.00,Weather View 32 v70,2013-02-14 09:16:00,
2013-02-14 04:21:00,31.2,27.2,28.03,NW,315,4.0,14.0,85,0.00,,,0.00,Weather View 32 v70,2013-02-14 09:21:00,
2013-02-14 04:26:00,30.9,26.1,28.04,NNW,337,2.0,14.0,82,0.00,,,0.00,Weather View 32 v70,2013-02-14 09:26:00,
2013-02-14 04:31:00,30.9,25.5,28.04,NW,315,2.0,12.0,80,0.00,,,0.00,Weather View 32 v70,2013-02-14 09:31:00,
2013-02-14 04:36:00,30.4,26.1,28.04,WNW,292,0.0,11.0,84,0.00,,,0.00,Weather View 32 v70,2013-02-14 09:36:00,
2013-02-14 04:41:00,29.8,25.6,28.04,WNW,292,0.0,11.0,84,0.00,,,0.00,Weather View 32 v70,2013-02-14 09:41:00,
2013-02-14 04:46:00,29.7,24.6,28.04,West,270,0.0,11.0,81,0.00,,,0.00,Weather View 32 v70,2013-02-14 09:46:00,
2013-02-14 04:51:00,29.8,24.7,28.04,West,270,0.0,11.0,81,0.00,,,0.00,Weather View 32 v70,2013-02-14 09:51:00,
2013-02-14 04:56:00,29.8,24.4,28.05,West,270,0.0,11.0,80,0.00,,,0.00,Weather View 32 v70,2013-02-14 09:56:00,
2013-02-14 05:01:00,30.1,24.7,28.05,West,270,2.0,11.0,80,0.00,,,0.00,Weather View 32 v70,2013-02-14 10:01:00,
2013-02-14 05:06:00,29.5,25.5,28.05,West,270,0.0,11.0,85,0.00,,,0.00,Weather View 32 v70,2013-02-14 10:06:00,
2013-02-14 05:11:00,28.5,25.7,28.06,West,270,0.0,11.0,89,0.00,,,0.00,Weather View 32 v70,2013-02-14 10:11:00,
2013-02-14 05:17:00,28.0,25.4,28.05,West,270,0.0,11.0,90,0.00,,,0.00,Weather View 32 v70,2013-02-14 10:17:00,
2013-02-14 05:22:00,27.4,25.6,28.05,West,270,0.0,5.0,93,0.00,,,0.00,Weather View 32 v70,2013-02-14 10:22:00,
2013-02-14 05:27:00,26.6,25.1,28.05,West,270,0.0,5.0,94,0.00,,,0.00,Weather View 32 v70,2013-02-14 10:27:00,
2013-02-14 05:32:00,26.7,25.2,28.05,West,270,1.0,2.0,94,0.00,,,0.00,Weather View 32 v70,2013-02-14 10:32:00,
2013-02-14 05:37:00,27.5,25.7,28.05,SW,225,2.0,5.0,93,0.00,,,0.00,Weather View 32 v70,2013-02-14 10:37:00,
2013-02-14 05:42:00,28.3,24.9,28.05,WSW,247,1.0,5.0,87,0.00,,,0.00,Weather View 32 v70,2013-02-14 10:42:00,
2013-02-14 05:47:00,28.1,24.2,28.05,WSW,247,2.0,5.0,85,0.00,,,0.00,Weather View 32 v70,2013-02-14 10:47:00,
2013-02-14 05:52:00,28.4,24.5,28.05,WSW,247,1.0,5.0,85,0.00,,,0.00,Weather View 32 v70,2013-02-14 10:52:00,
2013-02-14 05:57:00,29.2,24.1,28.06,SW,225,2.0,5.0,81,0.00,,,0.00,Weather View 32 v70,2013-02-14 10:57:00,
2013-02-14 06:02:00,29.2,23.5,28.06,SW,225,2.0,5.0,79,0.00,,,0.00,Weather View 32 v70,2013-02-14 11:02:00,
2013-02-14 06:07:00,28.9,23.8,28.06,SSW,202,1.0,5.0,81,0.00,,,0.00,Weather View 32 v70,2013-02-14 11:07:00,
2013-02-14 06:12:00,29.5,23.8,28.06,SSW,202,2.0,5.0,79,0.00,,,0.00,Weather View 32 v70,2013-02-14 11:12:00,
2013-02-14 06:17:00,29.9,23.3,28.06,SSW,202,2.0,5.0,76,0.00,,,0.00,Weather View 32 v70,2013-02-14 11:17:00,
2013-02-14 06:22:00,29.9,22.9,28.06,SSW,202,1.0,5.0,75,0.00,,,0.00,Weather View 32 v70,2013-02-14 11:22:00,
2013-02-14 06:27:00,29.6,23.0,28.06,NW,315,2.0,5.0,76,0.00,,,0.00,Weather View 32 v70,2013-02-14 11:27:00,
2013-02-14 06:32:00,28.4,23.9,28.06,North,360,2.0,5.0,83,0.00,,,0.00,Weather View 32 v70,2013-02-14 11:32:00,
2013-02-14 06:37:00,27.8,23.0,28.06,North,360,1.0,5.0,82,0.00,,,0.00,Weather View 32 v70,2013-02-14 11:37:00,
2013-02-14 06:42:00,27.7,23.8,28.06,North,360,1.0,4.0,85,0.00,,,0.00,Weather View 32 v70,2013-02-14 11:42:00,
2013-02-14 06:47:00,27.0,23.1,28.06,North,360,0.0,4.0,85,0.00,,,0.00,Weather View 32 v70,2013-02-14 11:47:00,
2013-02-14 06:52:00,26.5,23.2,28.07,WNW,292,0.0,3.0,87,0.00,,,0.00,Weather View 32 v70,2013-02-14 11:52:00,
2013-02-14 06:57:00,25.7,22.9,28.07,WNW,292,0.0,3.0,89,0.00,,,0.00,Weather View 32 v70,2013-02-14 11:57:00,
2013-02-14 07:02:00,25.1,22.8,28.08,WNW,292,0.0,3.0,91,0.00,,,0.00,Weather View 32 v70,2013-02-14 12:02:00,
2013-02-14 07:07:00,24.9,22.9,28.07,WNW,292,0.0,3.0,92,0.00,,,0.00,Weather View 32 v70,2013-02-14 12:07:00,
2013-02-14 07:12:00,25.9,23.6,28.08,WNW,292,1.0,3.0,91,0.00,,,0.00,Weather View 32 v70,2013-02-14 12:12:00,
2013-02-14 07:17:00,26.4,23.9,28.07,East,90,2.0,3.0,90,0.00,,,0.00,Weather View 32 v70,2013-02-14 12:17:00,
2013-02-14 07:22:00,26.1,23.8,28.08,East,90,3.0,3.0,91,0.00,,,0.00,Weather View 32 v70,2013-02-14 12:22:00,
2013-02-14 07:27:00,26.4,24.7,28.09,East,90,2.0,4.0,93,0.00,,,0.00,Weather View 32 v70,2013-02-14 12:27:00,
2013-02-14 07:32:00,26.4,24.7,28.08,East,90,0.0,4.0,93,0.00,,,0.00,Weather View 32 v70,2013-02-14 12:32:00,
2013-02-14 07:37:00,26.6,24.9,28.08,NE,45,1.0,4.0,93,0.00,,,0.00,Weather View 32 v70,2013-02-14 12:37:00,
2013-02-14 07:42:00,26.3,24.3,28.09,NE,45,0.0,4.0,92,0.00,,,0.00,Weather View 32 v70,2013-02-14 12:42:00,
2013-02-14 07:47:00,25.9,24.4,28.10,NE,45,0.0,4.0,94,0.00,,,0.00,Weather View 32 v70,2013-02-14 12:47:00,
2013-02-14 07:52:00,25.6,24.1,28.11,NE,45,0.0,4.0,94,0.00,,,0.00,Weather View 32 v70,2013-02-14 12:52:00,
2013-02-14 07:57:00,25.4,23.9,28.11,NE,45,0.0,4.0,94,0.00,,,0.00,Weather View 32 v70,2013-02-14 12:57:00,
2013-02-14 08:02:00,25.4,23.9,28.11,North,360,1.0,4.0,94,0.00,,,0.00,Weather View 32 v70,2013-02-14 13:02:00,
2013-02-14 08:07:00,25.9,24.4,28.11,North,360,0.0,4.0,94,0.00,,,0.00,Weather View 32 v70,2013-02-14 13:07:00,
2013-02-14 08:12:00,26.8,25.3,28.12,North,360,0.0,4.0,94,0.00,,,0.00,Weather View 32 v70,2013-02-14 13:12:00,
2013-02-14 08:17:00,27.9,26.4,28.11,North,360,1.0,4.0,94,0.00,,,0.00,Weather View 32 v70,2013-02-14 13:17:00,
2013-02-14 08:22:00,29.1,27.6,28.12,North,360,0.0,4.0,94,0.00,,,0.00,Weather View 32 v70,2013-02-14 13:22:00,
2013-02-14 08:27:00,30.1,28.6,28.12,North,360,0.0,3.0,94,0.00,,,0.00,Weather View 32 v70,2013-02-14 13:27:00,
2013-02-14 08:32:00,31.4,30.1,28.12,North,360,2.0,2.0,95,0.00,,,0.00,Weather View 32 v70,2013-02-14 13:32:00,
2013-02-14 08:37:00,32.2,30.9,28.13,North,360,0.0,2.0,95,0.00,,,0.00,Weather View 32 v70,2013-02-14 13:37:00,
2013-02-14 08:42:00,33.3,32.0,28.13,North,360,0.0,2.0,95,0.00,,,0.00,Weather View 32 v70,2013-02-14 13:42:00,
2013-02-14 08:47:00,34.5,33.2,28.13,North,360,0.0,2.0,95,0.00,,,0.00,Weather View 32 v70,2013-02-14 13:47:00,
2013-02-14 08:52:00,35.5,34.2,28.14,NE,45,0.0,2.0,95,0.00,,,0.00,Weather View 32 v70,2013-02-14 13:52:00,
2013-02-14 08:57:00,36.2,34.1,28.14,NE,45,0.0,2.0,92,0.00,,,0.00,Weather View 32 v70,2013-02-14 13:57:00,
2013-02-14 09:02:00,37.3,34.4,28.14,East,90,1.0,2.0,89,0.00,,,0.00,Weather View 32 v70,2013-02-14 14:02:00,
2013-02-14 09:07:00,37.5,32.8,28.14,East,90,1.0,2.0,83,0.01,,,0.01,Weather View 32 v70,2013-02-14 14:07:00,
2013-02-14 09:12:00,38.2,33.2,28.14,East,90,0.0,2.0,82,0.01,,,0.01,Weather View 32 v70,2013-02-14 14:12:00,
2013-02-14 09:17:00,38.5,32.5,28.14,WSW,247,2.0,2.0,79,0.01,,,0.03,Weather View 32 v70,2013-02-14 14:17:00,
2013-02-14 09:22:00,38.7,32.4,28.15,WSW,247,0.0,2.0,78,0.03,,,0.03,Weather View 32 v70,2013-02-14 14:22:00,
2013-02-14 09:27:00,37.6,29.7,28.15,SE,135,2.0,4.0,73,0.03,,,0.03,Weather View 32 v70,2013-02-14 14:27:00,
2013-02-14 09:32:00,37.2,31.0,28.15,South,180,2.0,4.0,78,0.03,,,0.03,Weather View 32 v70,2013-02-14 14:32:00,
2013-02-14 09:37:00,37.1,30.2,28.15,SSE,157,2.0,4.0,76,0.03,,,0.03,Weather View 32 v70,2013-02-14 14:37:00,
2013-02-14 09:42:00,37.8,29.9,28.15,South,180,3.0,4.0,73,0.04,,,0.04,Weather View 32 v70,2013-02-14 14:42:00,
2013-02-14 09:47:00,37.4,28.2,28.15,South,180,3.0,4.0,69,0.04,,,0.04,Weather View 32 v70,2013-02-14 14:47:00,
2013-02-14 09:53:00,37.3,29.1,28.16,SE,135,1.0,4.0,72,0.04,,,0.04,Weather View 32 v70,2013-02-14 14:53:00,
2013-02-14 09:58:00,37.5,26.8,28.16,SE,135,4.0,5.0,65,0.04,,,0.04,Weather View 32 v70,2013-02-14 14:58:00,
2013-02-14 10:03:00,37.6,26.9,28.16,South,180,2.0,5.0,65,0.04,,,0.04,Weather View 32 v70,2013-02-14 15:03:00,
2013-02-14 10:08:00,37.9,27.5,28.16,South,180,2.0,5.0,66,0.03,,,0.04,Weather View 32 v70,2013-02-14 15:08:00,
2013-02-14 10:13:00,38.3,29.0,28.16,South,180,1.0,5.0,69,0.03,,,0.04,Weather View 32 v70,2013-02-14 15:13:00,
2013-02-14 10:18:00,37.8,27.1,28.15,SSE,157,4.0,8.0,65,0.01,,,0.04,Weather View 32 v70,2013-02-14 15:18:00,
2013-02-14 10:23:00,37.5,26.4,28.15,SE,135,2.0,8.0,64,0.01,,,0.04,Weather View 32 v70,2013-02-14 15:23:00,
2013-02-14 10:28:00,37.7,25.8,28.15,SW,225,2.0,8.0,62,0.01,,,0.04,Weather View 32 v70,2013-02-14 15:28:00,
2013-02-14 10:33:00,38.5,26.6,28.15,South,180,3.0,8.0,62,0.02,,,0.05,Weather View 32 v70,2013-02-14 15:33:00,
2013-02-14 10:38:00,38.0,26.1,28.14,ESE,112,1.0,8.0,62,0.02,,,0.05,Weather View 32 v70,2013-02-14 15:38:00,
2013-02-14 10:43:00,38.3,28.7,28.14,SW,225,2.0,8.0,68,0.01,,,0.05,Weather View 32 v70,2013-02-14 15:43:00,
2013-02-14 10:48:00,38.1,27.0,28.15,South,180,7.0,8.0,64,0.01,,,0.05,Weather View 32 v70,2013-02-14 15:48:00,
2013-02-14 10:54:00,38.9,27.4,28.16,SSW,202,6.0,8.0,63,0.00,,,0.05,Weather View 32 v70,2013-02-14 15:54:00,
2013-02-14 10:59:00,38.8,26.5,28.16,SW,225,4.0,8.0,61,0.01,,,0.05,Weather View 32 v70,2013-02-14 15:59:00,
2013-02-14 11:04:00,39.1,27.9,28.15,South,180,4.0,8.0,64,0.01,,,0.05,Weather View 32 v70,2013-02-14 16:04:00,
2013-02-14 11:09:00,39.5,27.5,28.15,SW,225,7.0,8.0,62,0.01,,,0.05,Weather View 32 v70,2013-02-14 16:09:00,
2013-02-14 11:14:00,39.4,29.0,28.15,South,180,4.0,9.0,66,0.01,,,0.05,Weather View 32 v70,2013-02-14 16:14:00,
2013-02-14 11:19:00,39.9,28.7,28.15,South,180,7.0,9.0,64,0.01,,,0.05,Weather View 32 v70,2013-02-14 16:19:00,
2013-02-14 11:24:00,39.2,25.6,28.15,South,180,5.0,9.0,58,0.01,,,0.05,Weather View 32 v70,2013-02-14 16:24:00,
2013-02-14 11:29:00,39.8,27.8,28.15,South,180,2.0,9.0,62,0.01,,,0.05,Weather View 32 v70,2013-02-14 16:29:00,
2013-02-14 11:34:00,40.5,27.3,28.15,SW,225,7.0,11.0,59,0.00,,,0.05,Weather View 32 v70,2013-02-14 16:34:00,
2013-02-14 11:39:00,40.3,27.9,28.16,SW,225,2.0,11.0,61,0.00,,,0.05,Weather View 32 v70,2013-02-14 16:39:00,
2013-02-14 11:44:00,40.3,26.7,28.16,SW,225,4.0,11.0,58,0.00,,,0.05,Weather View 32 v70,2013-02-14 16:44:00,
2013-02-14 11:49:00,40.8,29.2,28.15,South,180,9.0,11.0,63,0.00,,,0.05,Weather View 32 v70,2013-02-14 16:49:00,
2013-02-14 11:54:00,40.5,26.4,28.16,SW,225,6.0,11.0,57,0.00,,,0.05,Weather View 32 v70,2013-02-14 16:54:00,
2013-02-14 11:59:00,40.3,26.7,28.16,SW,225,9.0,11.0,58,0.00,,,0.05,Weather View 32 v70,2013-02-14 16:59:00,
2013-02-14 12:04:00,40.8,26.7,28.16,SSE,157,2.0,12.0,57,0.00,,,0.05,Weather View 32 v70,2013-02-14 17:04:00,
2013-02-14 12:09:00,41.2,28.8,28.16,South,180,2.0,12.0,61,0.00,,,0.05,Weather View 32 v70,2013-02-14 17:09:00,
2013-02-14 12:14:00,41.5,27.8,28.16,SW,225,2.0,12.0,58,0.00,,,0.05,Weather View 32 v70,2013-02-14 17:14:00,
2013-02-14 12:19:00,42.0,28.7,28.15,SSW,202,11.0,12.0,59,0.00,,,0.05,Weather View 32 v70,2013-02-14 17:19:00,
2013-02-14 12:24:00,41.9,28.6,28.15,SE,135,3.0,13.0,59,0.00,,,0.05,Weather View 32 v70,2013-02-14 17:24:00,
2013-02-14 12:29:00,41.9,27.8,28.15,SE,135,1.0,13.0,57,0.00,,,0.05,Weather View 32 v70,2013-02-14 17:29:00,
2013-02-14 12:34:00,42.4,29.5,28.14,SSW,202,6.0,13.0,60,0.00,,,0.05,Weather View 32 v70,2013-02-14 17:34:00,
2013-02-14 12:39:00,42.6,28.0,28.14,SE,135,5.0,13.0,56,0.00,,,0.05,Weather View 32 v70,2013-02-14 17:39:00,
2013-02-14 12:44:00,42.9,28.3,28.14,South,180,2.0,13.0,56,0.00,,,0.05,Weather View 32 v70,2013-02-14 17:44:00,
2013-02-14 12:49:00,43.6,30.6,28.14,South,180,2.0,13.0,60,0.00,,,0.05,Weather View 32 v70,2013-02-14 17:49:00,
2013-02-14 12:54:00,43.9,28.3,28.14,South,180,6.0,13.0,54,0.00,,,0.05,Weather View 32 v70,2013-02-14 17:54:00,
2013-02-14 12:59:00,43.7,28.1,28.14,West,270,2.0,13.0,54,0.00,,,0.05,Weather View 32 v70,2013-02-14 17:59:00,
2013-02-14 13:04:00,44.0,28.4,28.13,South,180,7.0,13.0,54,0.00,,,0.05,Weather View 32 v70,2013-02-14 18:04:00,
2013-02-14 13:09:00,43.6,28.5,28.13,SSW,202,5.0,13.0,55,0.00,,,0.05,Weather View 32 v70,2013-02-14 18:09:00,
2013-02-14 13:14:00,43.5,28.8,28.12,South,180,3.0,13.0,56,0.00,,,0.05,Weather View 32 v70,2013-02-14 18:14:00,
2013-02-14 13:19:00,43.9,28.8,28.12,SSW,202,5.0,13.0,55,0.00,,,0.05,Weather View 32 v70,2013-02-14 18:19:00,
2013-02-14 13:24:00,44.1,28.9,28.11,ESE,112,6.0,11.0,55,0.00,,,0.05,Weather View 32 v70,2013-02-14 18:24:00,
2013-02-14 13:29:00,43.6,28.0,28.11,East,90,6.0,11.0,54,0.00,,,0.05,Weather View 32 v70,2013-02-14 18:29:00,
2013-02-14 13:34:00,43.7,28.1,28.11,SSW,202,6.0,11.0,54,0.00,,,0.05,Weather View 32 v70,2013-02-14 18:34:00,
2013-02-14 13:39:00,44.3,28.2,28.12,South,180,6.0,11.0,53,0.00,,,0.05,Weather View 32 v70,2013-02-14 18:39:00,
2013-02-14 13:44:00,44.3,28.2,28.12,South,180,4.0,11.0,53,0.00,,,0.05,Weather View 32 v70,2013-02-14 18:44:00,
2013-02-14 13:49:00,45.4,31.9,28.12,SSE,157,6.0,11.0,59,0.00,,,0.05,Weather View 32 v70,2013-02-14 18:49:00,
2013-02-14 13:54:00,44.5,27.9,28.12,South,180,7.0,12.0,52,0.00,,,0.05,Weather View 32 v70,2013-02-14 18:54:00,
2013-02-14 13:59:00,45.1,29.0,28.12,SSW,202,2.0,12.0,53,0.00,,,0.05,Weather View 32 v70,2013-02-14 18:59:00,
2013-02-14 14:04:00,45.1,28.0,28.11,East,90,4.0,12.0,51,0.00,,,0.05,Weather View 32 v70,2013-02-14 19:04:00,
2013-02-14 14:09:00,45.6,29.4,28.11,South,180,7.0,12.0,53,0.00,,,0.05,Weather View 32 v70,2013-02-14 19:09:00,
2013-02-14 14:14:00,45.5,28.4,28.11,South,180,7.0,12.0,51,0.00,,,0.05,Weather View 32 v70,2013-02-14 19:14:00,
2013-02-14 14:19:00,45.6,29.0,28.11,SE,135,3.0,12.0,52,0.00,,,0.05,Weather View 32 v70,2013-02-14 19:19:00,
2013-02-14 14:24:00,46.6,29.4,28.11,SW,225,2.0,12.0,51,0.00,,,0.05,Weather View 32 v70,2013-02-14 19:24:00,
2013-02-14 14:29:00,46.4,28.7,28.11,SSW,202,4.0,12.0,50,0.00,,,0.05,Weather View 32 v70,2013-02-14 19:29:00,
2013-02-14 14:34:00,46.7,30.4,28.12,South,180,7.0,12.0,53,0.00,,,0.05,Weather View 32 v70,2013-02-14 19:34:00,
2013-02-14 14:39:00,46.4,28.2,28.11,South,180,10.0,12.0,49,0.00,,,0.05,Weather View 32 v70,2013-02-14 19:39:00,
2013-02-14 14:44:00,46.4,28.7,28.11,SE,135,6.0,12.0,50,0.00,,,0.05,Weather View 32 v70,2013-02-14 19:44:00,
2013-02-14 14:49:00,46.7,28.5,28.11,East,90,2.0,12.0,49,0.00,,,0.05,Weather View 32 v70,2013-02-14 19:49:00,
2013-02-14 14:54:00,47.0,28.8,28.11,SSE,157,5.0,11.0,49,0.00,,,0.05,Weather View 32 v70,2013-02-14 19:54:00,
2013-02-14 14:59:00,46.9,29.7,28.10,South,180,5.0,13.0,51,0.00,,,0.05,Weather View 32 v70,2013-02-14 19:59:00,
2013-02-14 15:04:00,46.7,28.0,28.10,South,180,5.0,13.0,48,0.00,,,0.05,Weather View 32 v70,2013-02-14 20:04:00,
2013-02-14 15:09:00,47.1,28.9,28.10,South,180,5.0,13.0,49,0.00,,,0.05,Weather View 32 v70,2013-02-14 20:09:00,
2013-02-14 15:14:00,47.0,28.8,28.10,SSE,157,6.0,14.0,49,0.00,,,0.05,Weather View 32 v70,2013-02-14 20:14:00,
2013-02-14 15:19:00,46.9,28.2,28.10,South,180,9.0,14.0,48,0.00,,,0.05,Weather View 32 v70,2013-02-14 20:19:00,
2013-02-14 15:25:00,47.2,30.0,28.10,South,180,8.0,14.0,51,0.00,,,0.05,Weather View 32 v70,2013-02-14 20:25:00,
2013-02-14 15:30:00,47.4,28.1,28.10,South,180,8.0,14.0,47,0.00,,,0.05,Weather View 32 v70,2013-02-14 20:30:00,
2013-02-14 15:35:00,47.7,28.9,28.10,SSW,202,6.0,14.0,48,0.00,,,0.05,Weather View 32 v70,2013-02-14 20:35:00,
2013-02-14 15:40:00,48.0,29.2,28.10,South,180,8.0,14.0,48,0.00,,,0.05,Weather View 32 v70,2013-02-14 20:40:00,
2013-02-14 15:45:00,47.5,27.2,28.10,South,180,7.0,14.0,45,0.00,,,0.05,Weather View 32 v70,2013-02-14 20:45:00,
2013-02-14 15:50:00,47.4,27.6,28.10,SSE,157,2.0,14.0,46,0.00,,,0.05,Weather View 32 v70,2013-02-14 20:50:00,
2013-02-14 15:55:00,47.7,28.4,28.10,SE,135,6.0,14.0,47,0.00,,,0.05,Weather View 32 v70,2013-02-14 20:55:00,
2013-02-14 16:00:00,47.8,28.0,28.10,SSE,157,7.0,14.0,46,0.00,,,0.05,Weather View 32 v70,2013-02-14 21:00:00,
2013-02-14 16:05:00,47.3,28.1,28.09,SE,135,5.0,14.0,47,0.00,,,0.05,Weather View 32 v70,2013-02-14 21:05:00,
2013-02-14 16:10:00,47.2,27.4,28.09,SSE,157,6.0,14.0,46,0.00,,,0.05,Weather View 32 v70,2013-02-14 21:10:00,
2013-02-14 16:15:00,46.9,27.2,28.09,SE,135,6.0,14.0,46,0.00,,,0.05,Weather View 32 v70,2013-02-14 21:15:00,
2013-02-14 16:20:00,47.2,26.9,28.09,SSE,157,4.0,12.0,45,0.00,,,0.05,Weather View 32 v70,2013-02-14 21:20:00,
2013-02-14 16:25:00,47.3,27.0,28.09,SSE,157,7.0,12.0,45,0.00,,,0.05,Weather View 32 v70,2013-02-14 21:25:00,
2013-02-14 16:30:00,47.5,27.7,28.09,South,180,6.0,12.0,46,0.00,,,0.05,Weather View 32 v70,2013-02-14 21:30:00,
2013-02-14 16:35:00,47.5,27.2,28.09,South,180,6.0,12.0,45,0.00,,,0.05,Weather View 32 v70,2013-02-14 21:35:00,
2013-02-14 16:40:00,47.6,27.8,28.10,SSW,202,7.0,12.0,46,0.00,,,0.05,Weather View 32 v70,2013-02-14 21:40:00,
2013-02-14 16:45:00,47.5,27.2,28.10,South,180,9.0,12.0,45,0.00,,,0.05,Weather View 32 v70,2013-02-14 21:45:00,
2013-02-14 16:50:00,47.2,26.9,28.10,SW,225,9.0,14.0,45,0.00,,,0.05,Weather View 32 v70,2013-02-14 21:50:00,
2013-02-14 16:55:00,46.9,26.6,28.10,SW,225,8.0,14.0,45,0.00,,,0.05,Weather View 32 v70,2013-02-14 21:55:00,
2013-02-14 17:00:00,46.8,27.1,28.10,SSW,202,7.0,14.0,46,0.00,,,0.05,Weather View 32 v70,2013-02-14 22:00:00,
2013-02-14 17:05:00,47.2,26.9,28.10,South,180,6.0,14.0,45,0.00,,,0.05,Weather View 32 v70,2013-02-14 22:05:00,
2013-02-14 17:10:00,46.9,26.6,28.10,South,180,9.0,14.0,45,0.00,,,0.05,Weather View 32 v70,2013-02-14 22:10:00,
2013-02-14 17:15:00,46.9,27.2,28.10,South,180,4.0,14.0,46,0.00,,,0.05,Weather View 32 v70,2013-02-14 22:15:00,
2013-02-14 17:20:00,46.6,26.9,28.10,South,180,7.0,14.0,46,0.00,,,0.05,Weather View 32 v70,2013-02-14 22:20:00,
2013-02-14 17:25:00,45.9,27.8,28.10,South,180,4.0,14.0,49,0.00,,,0.05,Weather View 32 v70,2013-02-14 22:25:00,
2013-02-14 17:30:00,45.7,26.6,28.11,SW,225,7.0,14.0,47,0.00,,,0.05,Weather View 32 v70,2013-02-14 22:30:00,
2013-02-14 17:35:00,45.4,26.3,28.11,South,180,8.0,14.0,47,0.00,,,0.05,Weather View 32 v70,2013-02-14 22:35:00,
2013-02-14 17:40:00,45.0,26.0,28.11,SW,225,6.0,14.0,47,0.00,,,0.05,Weather View 32 v70,2013-02-14 22:40:00,
2013-02-14 17:45:00,44.3,26.3,28.10,SW,225,4.0,14.0,49,0.00,,,0.05,Weather View 32 v70,2013-02-14 22:45:00,
2013-02-14 17:50:00,43.9,25.9,28.11,SW,225,5.0,13.0,49,0.00,,,0.05,Weather View 32 v70,2013-02-14 22:50:00,
2013-02-14 17:55:00,43.8,25.4,28.10,SW,225,6.0,11.0,48,0.00,,,0.05,Weather View 32 v70,2013-02-14 22:55:00,
2013-02-14 18:00:00,43.4,25.5,28.10,SW,225,4.0,11.0,49,0.00,,,0.05,Weather View 32 v70,2013-02-14 23:00:00,
2013-02-14 18:05:00,43.1,25.7,28.11,WSW,247,5.0,11.0,50,0.00,,,0.05,Weather View 32 v70,2013-02-14 23:05:00,
2013-02-14 18:10:00,43.2,25.3,28.11,SW,225,4.0,11.0,49,0.00,,,0.05,Weather View 32 v70,2013-02-14 23:10:00,
2013-02-14 18:15:00,43.2,25.3,28.12,West,270,6.0,11.0,49,0.00,,,0.05,Weather View 32 v70,2013-02-14 23:15:00,
2013-02-14 18:20:00,42.9,25.0,28.12,SW,225,7.0,11.0,49,0.00,,,0.05,Weather View 32 v70,2013-02-14 23:20:00,
2013-02-14 18:25:00,42.8,25.4,28.12,SW,225,4.0,11.0,50,0.00,,,0.05,Weather View 32 v70,2013-02-14 23:25:00,
2013-02-14 18:30:00,42.7,25.3,28.13,SW,225,7.0,11.0,50,0.00,,,0.05,Weather View 32 v70,2013-02-14 23:30:00,
2013-02-14 18:35:00,42.6,25.2,28.13,SW,225,5.0,10.0,50,0.00,,,0.05,Weather View 32 v70,2013-02-14 23:35:00,
2013-02-14 18:40:00,42.4,25.5,28.13,SW,225,5.0,11.0,51,0.00,,,0.05,Weather View 32 v70,2013-02-14 23:40:00,
2013-02-14 18:45:00,42.3,25.4,28.13,SW,225,6.0,11.0,51,0.00,,,0.05,Weather View 32 v70,2013-02-14 23:45:00,
2013-02-14 18:50:00,42.2,25.3,28.13,SW,225,3.0,11.0,51,0.00,,,0.05,Weather View 32 v70,2013-02-14 23:50:00,
2013-02-14 18:55:00,41.9,25.1,28.13,SW,225,4.0,11.0,51,0.00,,,0.05,Weather View 32 v70,2013-02-14 23:55:00,
2013-02-14 19:00:00,41.8,25.0,28.13,SW,225,2.0,11.0,51,0.00,,,0.05,Weather View 32 v70,2013-02-15 00:00:00,
2013-02-14 19:05:00,41.6,25.3,28.13,SW,225,4.0,11.0,52,0.00,,,0.05,Weather View 32 v70,2013-02-15 00:05:00,
2013-02-14 19:10:00,41.2,25.3,28.14,WSW,247,1.0,11.0,53,0.00,,,0.05,Weather View 32 v70,2013-02-15 00:10:00,
2013-02-14 19:15:00,40.8,25.0,28.13,SW,225,2.0,11.0,53,0.00,,,0.05,Weather View 32 v70,2013-02-15 00:15:00,
2013-02-14 19:20:00,40.5,25.1,28.13,SW,225,2.0,11.0,54,0.00,,,0.05,Weather View 32 v70,2013-02-15 00:20:00,
2013-02-14 19:25:00,40.3,25.0,28.13,SW,225,2.0,11.0,54,0.00,,,0.05,Weather View 32 v70,2013-02-15 00:25:00,
2013-02-14 19:30:00,39.4,25.0,28.13,SW,225,1.0,11.0,56,0.00,,,0.05,Weather View 32 v70,2013-02-15 00:30:00,
2013-02-14 19:35:00,38.7,24.8,28.13,SW,225,0.0,11.0,57,0.00,,,0.05,Weather View 32 v70,2013-02-15 00:35:00,
2013-02-14 19:40:00,37.9,24.0,28.13,SW,225,0.0,10.0,57,0.00,,,0.05,Weather View 32 v70,2013-02-15 00:40:00,
2013-02-14 19:45:00,37.6,24.1,28.13,SW,225,0.0,7.0,58,0.00,,,0.05,Weather View 32 v70,2013-02-15 00:45:00,
2013-02-14 19:50:00,37.4,24.0,28.12,SW,225,0.0,7.0,58,0.00,,,0.05,Weather View 32 v70,2013-02-15 00:50:00,
2013-02-14 19:55:00,37.6,24.6,28.13,SW,225,2.0,6.0,59,0.00,,,0.05,Weather View 32 v70,2013-02-15 00:55:00,
2013-02-14 20:00:00,37.7,24.2,28.12,SW,225,2.0,6.0,58,0.00,,,0.05,Weather View 32 v70,2013-02-15 01:00:00,
2013-02-14 20:05:00,37.5,24.5,28.13,SW,225,1.0,6.0,59,0.00,,,0.05,Weather View 32 v70,2013-02-15 01:05:00,
2013-02-14 20:10:00,36.8,24.6,28.13,SW,225,0.0,4.0,61,0.00,,,0.05,Weather View 32 v70,2013-02-15 01:10:00,
2013-02-14 20:15:00,35.9,24.5,28.13,SW,225,0.0,4.0,63,0.00,,,0.05,Weather View 32 v70,2013-02-15 01:15:00,
2013-02-14 20:20:00,35.2,24.6,28.13,SW,225,1.0,3.0,65,0.00,,,0.05,Weather View 32 v70,2013-02-15 01:20:00,
2013-02-14 20:25:00,34.7,24.5,28.13,SW,225,0.0,2.0,66,0.00,,,0.05,Weather View 32 v70,2013-02-15 01:25:00,
2013-02-14 20:30:00,34.3,24.5,28.13,SW,225,1.0,2.0,67,0.00,,,0.05,Weather View 32 v70,2013-02-15 01:30:00,
2013-02-14 20:35:00,33.8,24.7,28.13,SW,225,0.0,2.0,69,0.00,,,0.05,Weather View 32 v70,2013-02-15 01:35:00,
2013-02-14 20:40:00,33.3,24.6,28.12,SW,225,0.0,2.0,70,0.00,,,0.05,Weather View 32 v70,2013-02-15 01:40:00,
2013-02-14 20:45:00,33.1,25.1,28.12,SW,225,1.0,2.0,72,0.00,,,0.05,Weather View 32 v70,2013-02-15 01:45:00,
2013-02-14 20:50:00,33.1,24.7,28.13,SW,225,2.0,2.0,71,0.00,,,0.05,Weather View 32 v70,2013-02-15 01:50:00,
2013-02-14 20:55:00,32.9,24.9,28.13,SW,225,0.0,2.0,72,0.00,,,0.05,Weather View 32 v70,2013-02-15 01:55:00,
2013-02-14 21:00:00,32.7,25.0,28.13,SW,225,1.0,2.0,73,0.00,,,0.05,Weather View 32 v70,2013-02-15 02:00:00,
2013-02-14 21:05:00,32.4,24.7,28.13,SW,225,2.0,2.0,73,0.00,,,0.05,Weather View 32 v70,2013-02-15 02:05:00,
2013-02-14 21:10:00,32.2,24.5,28.12,SW,225,0.0,2.0,73,0.00,,,0.05,Weather View 32 v70,2013-02-15 02:10:00,
2013-02-14 21:15:00,31.9,24.6,28.12,SW,225,0.0,2.0,74,0.00,,,0.05,Weather View 32 v70,2013-02-15 02:15:00,
2013-02-14 21:20:00,31.5,24.5,28.12,SW,225,0.0,2.0,75,0.00,,,0.05,Weather View 32 v70,2013-02-15 02:20:00,
2013-02-14 21:25:00,30.9,23.9,28.12,SW,225,0.0,2.0,75,0.00,,,0.05,Weather View 32 v70,2013-02-15 02:25:00,
2013-02-14 21:30:00,30.6,23.9,28.12,SW,225,0.0,2.0,76,0.00,,,0.05,Weather View 32 v70,2013-02-15 02:30:00,
2013-02-14 21:35:00,30.5,24.5,28.12,SW,225,1.0,2.0,78,0.00,,,0.05,Weather View 32 v70,2013-02-15 02:35:00,
2013-02-14 21:40:00,30.2,24.2,28.12,SW,225,0.0,2.0,78,0.00,,,0.05,Weather View 32 v70,2013-02-15 02:40:00,
2013-02-14 21:45:00,29.9,24.5,28.12,SW,225,0.0,2.0,80,0.00,,,0.05,Weather View 32 v70,2013-02-15 02:45:00,
2013-02-14 21:50:00,29.9,24.2,28.12,SW,225,1.0,2.0,79,0.00,,,0.05,Weather View 32 v70,2013-02-15 02:50:00,
2013-02-14 21:55:00,30.6,24.2,28.12,SW,225,1.0,2.0,77,0.00,,,0.05,Weather View 32 v70,2013-02-15 02:55:00,
2013-02-14 22:00:00,31.7,24.7,28.12,SW,225,1.0,2.0,75,0.00,,,0.05,Weather View 32 v70,2013-02-15 03:00:00,
2013-02-14 22:05:00,32.9,25.2,28.12,SW,225,1.0,2.0,73,0.00,,,0.05,Weather View 32 v70,2013-02-15 03:05:00,
2013-02-14 22:10:00,33.2,25.1,28.12,SW,225,0.0,2.0,72,0.00,,,0.05,Weather View 32 v70,2013-02-15 03:10:00,
2013-02-14 22:15:00,33.2,25.5,28.12,East,90,1.0,2.0,73,0.00,,,0.05,Weather View 32 v70,2013-02-15 03:15:00,
2013-02-14 22:20:00,32.3,25.3,28.12,NE,45,2.0,2.0,75,0.00,,,0.05,Weather View 32 v70,2013-02-15 03:20:00,
2013-02-14 22:25:00,31.4,24.7,28.12,NE,45,0.0,2.0,76,0.00,,,0.05,Weather View 32 v70,2013-02-15 03:25:00,
2013-02-14 22:30:00,30.4,24.7,28.12,NE,45,0.0,2.0,79,0.00,,,0.05,Weather View 32 v70,2013-02-15 03:30:00,
2013-02-14 22:35:00,29.6,24.2,28.12,NE,45,0.0,2.0,80,0.00,,,0.05,Weather View 32 v70,2013-02-15 03:35:00,
2013-02-14 22:40:00,29.2,25.0,28.12,NE,45,1.0,2.0,84,0.00,,,0.05,Weather View 32 v70,2013-02-15 03:40:00,
2013-02-14 22:45:00,28.9,24.7,28.12,NE,45,0.0,2.0,84,0.00,,,0.05,Weather View 32 v70,2013-02-15 03:45:00,
2013-02-14 22:50:00,28.6,24.1,28.12,NE,45,0.0,2.0,83,0.00,,,0.05,Weather View 32 v70,2013-02-15 03:50:00,
2013-02-14 22:55:00,28.0,24.1,28.12,NE,45,0.0,2.0,85,0.00,,,0.05,Weather View 32 v70,2013-02-15 03:55:00,
2013-02-14 23:00:00,27.8,24.2,28.12,NE,45,1.0,2.0,86,0.00,,,0.05,Weather View 32 v70,2013-02-15 04:00:00,
2013-02-14 23:05:00,27.9,24.5,28.12,NE,45,1.0,2.0,87,0.00,,,0.05,Weather View 32 v70,2013-02-15 04:05:00,
2013-02-14 23:10:00,28.3,24.6,28.12,NE,45,0.0,2.0,86,0.00,,,0.05,Weather View 32 v70,2013-02-15 04:10:00,
2013-02-14 23:15:00,28.8,24.9,28.12,NE,45,0.0,2.0,85,0.00,,,0.05,Weather View 32 v70,2013-02-15 04:15:00,
2013-02-14 23:20:00,28.8,24.9,28.12,NE,45,0.0,2.0,85,0.00,,,0.05,Weather View 32 v70,2013-02-15 04:20:00,
2013-02-14 23:25:00,28.7,24.5,28.12,NE,45,0.0,2.0,84,0.00,,,0.05,Weather View 32 v70,2013-02-15 04:25:00,
2013-02-14 23:30:00,28.3,24.4,28.12,NNE,22,0.0,2.0,85,0.00,,,0.05,Weather View 32 v70,2013-02-15 04:30:00,
2013-02-14 23:35:00,27.8,24.2,28.12,NNE,22,0.0,2.0,86,0.00,,,0.05,Weather View 32 v70,2013-02-15 04:35:00,
2013-02-14 23:40:00,27.5,24.1,28.12,NNE,22,0.0,2.0,87,0.00,,,0.05,Weather View 32 v70,2013-02-15 04:40:00,
2013-02-14 23:45:00,27.4,24.3,28.12,NNE,22,0.0,2.0,88,0.00,,,0.05,Weather View 32 v70,2013-02-15 04:45:00,
2013-02-14 23:50:00,27.1,24.0,28.12,NNE,22,0.0,2.0,88,0.00,,,0.05,Weather View 32 v70,2013-02-15 04:50:00,
2013-02-14 23:55:00,26.9,24.1,28.12,NNE,22,1.0,2.0,89,0.00,,,0.05,Weather View 32 v70,2013-02-15 04:55:00,